Simultaneous Nadir Overpasses (SNOs) Predictions

Prediction of SNOs between GOES-16 and NOAA-20 Satellite Orbit:

Table of predicted SNOs for the next 14.0 days since TLE Epoch: 7/5/2019
Index Date Time (GOES-16) GOES-16 Lat,Lon NOAA-20 Lat,Lon Distance(km) Time Diff (sec)
1 07/07/2019 18:26:28 0.01, -75.20 -0.13, -75.73 60.88 80
2 07/08/2019 18:10:23 0.01, -75.21 0.93, -71.21 456.49 80
3 07/10/2019 06:29:30 -0.01, -75.22 0.29, -76.46 142.50 80
4 07/11/2019 06:13:25 -0.01, -75.23 -0.76, -71.94 375.13 80
5 07/12/2019 18:32:40 0.01, -75.24 -0.43, -77.24 227.51 80
6 07/13/2019 18:16:35 0.01, -75.26 0.56, -72.70 290.42 80
7 07/15/2019 06:38:22 -0.02, -75.28 0.60, -77.98 307.59 80
8 07/16/2019 06:19:37 -0.01, -75.29 -0.40, -73.44 210.72 80
9 07/17/2019 18:38:53 0.01, -75.32 -0.73, -78.75 390.80 80
10 07/18/2019 18:22:48 0.01, -75.34 0.27, -74.22 128.01 80




NCC Satellite Simultaneous Nadir Overpasses (SNOs) Prediction Service
